Location: ????
(30.1475°N, 31.1342°E)
Time: 11:48:58
(UTC+00:00)

SL-24 R/B - RUBIN 2 - Pass Details

Date: 22 March 2023
Orbit: 586 x 1007 km, 64.6° (Epoch: 02 June)

Event Time Altitude Azimuth Distance (km) Brightness Sun altitude
Rises 17:37:12 0° 306° (NW) 3,469 8.6 -20.0°
Reaches altitude 10° 17:40:52 10° 283° (WNW) 2,609 7.9 -20.7°
Maximum altitude 17:43:57 14° 253° (WSW) 2,361 7.3 -21.4°
Drops below altitude 10° 17:47:09 10° 222° (SW) 2,710 7.2 -22.0°
Sets 17:51:08 0° 199° (SSW) 3,697 7.6 -22.9°
